Wind_Speed
73 74 74 75 76 77 77 77 77 78 78 78 79 80 80 80 80 81 81 82 82 83 83 84 83 83 82 82 82 82 83 82 82 80 79 77 75 73 71 70 70 69 68 67 65 64 63 61 60 59 58 57 55 53 50 47 43 38 34 30 26 22 21 20 20 20 20 19 18 17 16 14 13 14 13 14 14 14 16 17 20 21 22 22 21
76 77 77 78 78 78 78 79 79 79 80 80 81 82 82 82 82 83 84 84 85 85 85 85 84 84 83 83 83 83 83 82 81 79 77 75 73 71 70 69 69 68 67 66 65 63 62 60 59 58 57 56 54 52 49 44 40 35 31 27 24 22 21 21 20 20 20 20 19 17 15 15 14 15 15 14 14 14 15 17 20 22 23 23 22
79 79 80 79 79 80 80 80 80 81 81 83 83 83 84 84 85 85 86 86 86 86 85 85 84 84 84 84 84 84 82 81 80 78 75 73 71 70 69 68 68 67 66 65 64 62 61 59 58 57 56 54 53 50 47 42 37 32 28 25 23 22 21 21 20 21 22 21 20 19 16 15 14 15 15 15 15 15 15 17 20 22 24 25 24
81 81 81 81 81 81 81 81 82 82 84 84 85 85 86 86 87 87 87 87 87 86 85 85 85 85 85 84 84 83 82 80 78 76 74 72 71 69 68 67 67 66 65 64 63 61 60 58 57 56 54 53 51 48 44 39 33 29 26 25 23 22 21 21 21 21 22 21 21 20 17 15 14 15 16 16 16 16 16 17 19 21 24 25 25
83 83 83 83 83 83 83 83 84 85 86 86 87 87 88 88 88 88 88 87 87 86 86 86 85 85 84 84 83 82 81 78 76 74 73 71 70 69 68 67 66 65 64 63 62 60 59 57 56 55 53 51 49 45 41 36 31 27 25 25 24 23 23 22 22 22 22 22 22 20 17 15 15 16 17 18 17 17 17 17 18 20 22 24 25
85 85 85 85 86 85 85 86 87 87 88 88 88 89 89 89 89 89 89 88 88 87 87 86 86 85 84 83 82 81 79 77 75 73 72 70 69 68 67 66 65 64 63 62 61 59 58 56 55 53 52 50 46 42 38 34 30 26 25 25 24 24 24 23 24 24 24 22 23 22 18 16 16 17 18 19 19 18 18 18 18 19 21 22 24
88 88 88 88 88 88 88 88 88 89 89 89 90 90 90 90 90 90 89 89 88 88 87 86 85 85 83 82 80 79 77 76 74 72 71 70 69 68 66 65 64 63 63 61 60 58 57 56 54 52 50 47 44 40 36 32 28 25 25 26 25 25 25 25 25 25 25 24 25 24 19 17 17 19 20 20 19 19 19 19 19 19 20 21 22
90 90 90 89 89 89 89 90 90 90 90 90 91 91 91 91 91 90 90 89 88 88 87 86 85 84 82 80 79 77 76 75 74 72 70 69 68 67 65 64 63 62 62 60 59 57 56 54 52 51 48 45 41 38 34 30 26 24 25 26 25 25 26 26 26 26 27 27 27 26 21 19 18 20 21 21 21 20 20 19 19 20 20 20 21
92 92 91 91 91 91 91 91 91 91 91 91 92 92 92 91 91 90 89 89 88 88 87 85 84 82 80 79 77 76 75 74 73 72 70 69 67 66 64 63 62 61 60 59 58 56 55 53 51 49 46 42 39 36 32 28 25 24 26 27 26 26 26 26 27 28 28 28 29 27 23 21 19 20 23 24 23 21 21 20 20 20 20 20 21
94 94 93 93 92 92 92 92 92 92 92 92 92 92 91 91 90 90 90 89 88 87 85 84 82 81 80 78 77 76 74 74 73 72 70 68 67 65 63 61 61 60 59 58 57 55 53 51 49 47 43 40 37 33 30 27 24 24 26 27 26 26 26 27 28 28 28 28 30 29 25 23 20 20 22 25 25 23 22 21 20 21 21 21 21
96 95 94 93 93 93 93 93 93 92 92 92 92 91 91 91 91 90 89 88 87 85 84 83 82 81 79 78 77 75 74 73 72 71 69 67 66 64 62 60 59 59 58 57 55 54 52 49 47 44 41 38 35 31 29 26 24 25 27 28 26 26 26 27 29 28 27 26 29 30 27 24 23 22 23 25 26 25 24 22 21 22 22 22 22
96 95 95 94 94 94 94 93 92 91 91 91 92 92 92 91 90 89 88 87 86 84 83 82 81 80 79 77 76 75 74 73 72 70 69 66 64 63 61 59 58 57 57 56 54 52 50 47 44 41 39 36 33 30 27 25 24 25 27 28 26 26 27 28 29 30 29 29 30 31 28 25 26 25 24 26 27 27 25 23 22 22 23 23 23
96 96 95 95 95 94 93 92 91 91 91 92 92 92 91 90 89 88 87 86 85 84 83 82 81 80 79 77 76 75 74 72 71 69 67 65 63 61 60 58 57 56 56 55 53 51 48 43 41 39 36 34 31 29 26 25 25 26 27 28 27 27 28 28 29 31 33 34 33 33 31 28 28 27 26 27 28 28 27 25 23 23 23 23 23
96 96 96 95 94 93 92 91 91 92 92 92 91 91 90 89 88 88 87 86 85 84 83 82 81 80 79 78 76 74 72 71 69 68 65 64 62 61 59 58 56 55 55 54 51 49 45 40 38 36 34 32 30 27 25 26 27 27 27 28 28 28 28 28 29 32 35 37 35 35 34 31 29 28 28 27 29 29 28 26 25 23 23 23 23
97 96 96 95 93 92 92 92 92 92 92 91 91 90 89 89 88 88 87 86 85 84 83 82 81 80 78 77 75 73 71 70 68 66 64 62 61 59 58 57 56 54 53 52 50 46 42 38 36 34 33 31 29 26 25 27 28 28 28 29 29 29 28 28 29 32 37 38 35 35 35 33 31 29 28 27 29 30 29 28 26 24 23 23 23
96 96 95 94 93 93 92 92 92 92 92 92 91 90 90 89 88 87 86 86 84 83 82 81 80 79 77 76 74 72 70 68 67 65 63 61 59 58 57 56 55 53 51 50 48 44 39 36 34 33 32 30 27 25 26 28 29 29 28 29 29 28 28 28 30 33 38 39 37 36 35 35 33 30 29 28 30 31 30 30 28 25 24 24 24
96 96 95 95 94 93 93 92 93 93 93 92 92 90 90 88 87 86 86 85 84 82 81 80 79 77 76 74 73 71 69 67 65 63 61 60 58 57 56 55 53 52 49 47 45 41 37 34 32 32 30 28 27 26 27 30 30 29 29 29 28 28 29 29 31 33 39 41 39 37 36 36 35 32 29 29 30 32 32 31 29 27 25 24 24
97 97 96 95 94 93 93 94 94 94 93 92 91 90 89 88 87 86 85 84 83 82 80 79 78 76 74 73 71 69 68 66 64 62 60 59 58 56 54 53 52 50 47 44 41 38 34 32 31 30 28 27 27 27 29 30 30 30 29 28 28 28 30 30 32 35 39 41 40 38 36 37 37 34 31 29 30 32 33 31 29 28 26 25 25
99 98 97 95 94 94 94 95 95 94 93 92 91 90 89 87 86 85 84 83 81 81 79 78 77 74 73 72 70 68 66 63 62 60 59 58 57 56 54 52 51 48 45 41 38 35 31 29 29 29 27 26 27 28 29 30 30 31 29 28 27 29 31 32 33 36 40 42 41 40 36 35 37 36 34 31 30 31 32 31 29 28 27 25 25
99 98 97 96 95 95 95 95 94 93 92 91 90 89 88 87 86 84 83 82 80 79 78 76 75 73 71 70 68 66 64 62 60 59 58 58 57 55 53 51 49 46 42 39 35 32 29 27 28 28 26 26 28 29 30 31 31 31 30 28 27 28 31 33 34 37 41 42 42 40 37 35 36 37 36 33 31 31 32 31 31 30 28 27 26
99 97 97 96 95 95 95 94 93 91 90 90 89 88 87 86 84 83 82 80 79 77 76 74 73 72 70 68 66 64 62 61 59 58 57 56 55 54 52 50 47 43 39 36 33 30 28 27 27 26 26 27 29 31 32 31 31 30 30 28 27 28 32 34 36 39 42 43 42 40 38 35 35 36 37 36 32 30 31 32 33 32 30 28 26
98 97 96 95 94 94 93 92 91 90 89 88 87 86 85 84 82 81 80 79 77 75 74 73 71 70 68 66 65 62 61 60 58 57 56 55 53 52 50 48 44 40 36 34 31 29 27 26 26 26 28 29 31 32 33 32 30 30 30 29 27 28 33 35 37 41 42 42 42 41 39 35 34 34 35 37 35 30 28 31 33 34 32 29 28
96 95 94 94 93 93 92 91 90 89 88 86 85 84 83 82 81 80 78 77 75 74 73 71 70 68 66 65 63 61 60 59 57 56 54 53 51 49 47 45 42 37 33 32 30 28 27 27 26 28 30 31 32 33 34 33 32 31 31 31 28 29 33 36 39 42 43 42 43 43 40 36 35 35 34 35 37 33 29 30 32 34 34 31 30
93 93 92 92 92 91 90 89 88 87 85 84 83 83 81 80 79 78 76 75 74 73 71 70 68 66 64 63 62 60 59 57 56 54 52 51 49 46 44 42 39 35 31 30 29 27 28 27 27 30 33 33 33 33 34 34 34 33 33 32 29 29 33 37 40 44 45 43 44 44 41 37 34 35 34 34 37 37 32 31 33 36 36 33 32
91 91 91 91 91 89 87 86 85 84 83 83 82 81 80 78 77 75 75 74 73 71 69 68 66 65 63 62 60 59 57 55 54 52 50 48 46 44 41 39 37 33 30 28 28 28 28 28 28 31 33 34 34 33 33 34 34 33 33 32 29 30 33 36 42 47 46 44 44 44 42 38 33 32 34 34 36 37 36 33 33 35 36 34 32
90 90 89 89 88 86 84 83 82 82 82 81 80 79 77 76 75 74 73 72 70 69 67 66 65 63 61 60 59 57 55 53 51 49 47 45 43 41 38 37 35 31 29 28 28 29 30 30 30 32 34 35 34 33 33 34 33 32 31 30 29 30 32 35 42 48 48 44 43 43 42 39 34 32 33 34 34 34 34 35 33 32 34 35 34
89 88 87 86 85 83 82 81 81 81 80 79 78 77 75 74 73 72 71 70 68 66 66 64 63 61 60 58 57 55 53 50 48 46 44 42 40 38 36 34 33 31 28 28 29 30 31 32 32 32 33 35 33 32 31 31 31 30 30 29 28 29 31 34 41 48 49 46 44 43 41 39 34 31 32 34 34 33 33 35 34 32 33 36 36
87 86 85 84 82 81 80 80 79 79 78 77 76 75 74 72 71 69 68 67 66 65 64 63 61 59 58 56 54 52 49 47 45 43 41 38 35 33 32 32 32 29 28 28 29 31 32 32 32 32 32 33 32 30 29 28 28 28 28 27 27 28 30 33 39 47 50 48 47 44 41 39 36 34 33 34 34 34 34 35 36 33 31 32 34
84 84 83 82 81 81 80 79 78 77 77 76 74 73 71 69 68 67 66 64 63 63 62 60 59 57 55 53 51 49 46 44 42 40 37 34 31 26 26 30 30 28 27 28 29 31 33 32 31 31 32 32 30 28 27 25 24 25 26 25 26 26 28 32 37 45 50 50 49 47 44 41 39 37 36 36 36 35 36 36 37 36 33 31 30
81 81 80 80 80 80 79 78 76 75 75 73 72 70 68 67 66 64 63 61 60 60 59 57 56 54 52 50 47 44 42 40 38 36 32 29 28 23 22 26 28 29 29 28 29 31 32 31 30 31 31 30 28 28 25 22 21 21 22 23 24 24 26 29 33 41 48 51 50 49 47 45 42 39 37 38 38 37 36 37 38 39 38 34 30
79 78 77 77 77 77 77 76 74 73 72 71 69 67 65 64 63 62 60 59 57 57 55 53 52 50 48 46 43 41 40 37 34 32 29 26 27 25 23 25 29 31 29 28 29 30 30 29 29 30 30 29 28 27 24 20 18 18 18 20 22 23 24 26 29 35 43 49 51 51 49 47 46 43 40 39 38 38 38 37 38 40 41 39 34
77 76 75 74 73 73 72 72 71 70 69 68 66 64 63 61 60 59 57 56 54 53 51 49 48 47 45 44 42 40 38 33 30 29 27 25 26 26 24 26 30 29 24 25 28 29 29 29 29 29 29 29 29 27 23 20 19 18 17 18 20 22 24 26 28 30 36 44 49 51 51 50 48 46 44 41 40 39 38 38 39 40 42 41 37
74 73 72 71 70 69 68 67 67 66 65 64 63 61 60 58 56 55 54 52 51 49 48 46 47 46 44 43 40 37 33 29 28 27 24 23 23 23 23 27 29 24 20 22 26 27 28 30 29 29 29 29 30 27 23 21 21 21 19 18 19 21 23 26 28 29 33 39 44 48 50 51 51 49 46 44 42 40 39 39 40 41 42 42 38
70 70 69 68 67 65 64 64 63 62 61 60 59 58 56 55 53 51 49 48 47 46 45 44 43 43 41 39 36 33 30 27 26 25 23 21 19 21 24 27 27 24 22 22 24 26 28 30 30 30 30 30 31 28 25 24 24 23 22 20 18 20 22 25 27 29 32 37 41 44 46 48 49 50 48 46 44 42 40 39 40 41 42 42 40
65 65 64 64 63 62 61 60 59 58 57 56 54 53 52 51 49 48 46 44 43 42 42 41 40 39 37 35 33 30 27 26 25 24 21 19 20 23 24 25 27 28 28 25 22 23 28 30 31 31 31 31 31 29 28 27 27 25 24 21 20 23 24 24 27 29 31 35 40 44 45 46 46 47 47 46 45 44 42 40 39 40 41 42 40
61 61 60 60 59 58 57 56 55 54 53 52 50 49 48 47 46 45 43 42 40 39 38 38 37 35 34 32 31 28 26 25 25 24 22 21 24 25 22 22 26 30 31 30 26 24 29 32 33 32 31 31 31 30 29 29 28 27 26 24 23 27 28 26 26 28 31 33 38 44 47 47 45 44 45 46 45 44 42 39 36 36 38 40 39
57 57 57 56 55 54 53 52 50 49 48 47 46 45 44 43 42 41 40 39 37 36 35 35 34 33 32 31 30 28 27 26 25 24 24 25 27 26 24 25 27 27 28 30 28 28 31 34 35 33 31 32 32 31 29 28 28 27 27 28 27 28 30 29 27 27 30 32 35 40 45 48 48 46 45 45 45 45 44 41 37 35 34 36 37
54 54 53 52 51 50 49 47 46 45 44 44 43 42 41 40 40 39 37 36 35 34 33 33 33 33 31 30 29 28 27 27 26 25 27 28 29 27 28 31 31 27 26 26 27 31 35 35 35 35 33 34 34 32 31 29 29 28 28 30 29 29 30 30 28 27 29 32 34 36 41 44 46 47 47 47 47 46 46 45 42 39 36 35 36
50 51 49 48 47 46 44 43 42 41 41 40 39 38 38 38 37 37 35 33 32 33 32 32 32 33 32 31 29 28 28 28 27 27 28 31 31 31 34 35 32 28 26 26 28 32 35 35 35 35 34 35 34 33 33 31 31 30 29 30 30 29 30 30 29 29 30 32 34 35 38 41 42 44 46 47 48 48 47 46 45 44 41 40 38
47 47 45 44 43 42 40 39 38 38 37 37 36 36 35 35 35 35 33 32 32 32 33 33 33 33 33 32 30 29 29 29 29 28 29 31 32 35 38 36 31 28 29 30 31 32 34 35 35 35 35 37 35 32 30 28 29 32 31 30 31 30 29 30 30 31 32 32 33 35 37 40 42 42 43 44 46 47 47 47 47 46 44 43 41
44 42 41 40 39 38 37 36 36 35 35 34 34 34 34 34 34 33 33 33 33 33 34 33 33 33 33 32 31 30 30 30 30 30 30 31 33 36 39 37 33 32 32 32 33 32 32 34 34 31 32 34 35 33 30 26 25 30 33 32 32 31 30 30 31 33 33 33 32 34 35 39 42 44 42 42 43 45 46 47 47 47 45 44 42
40 38 36 35 35 35 35 35 34 34 34 34 34 34 33 33 33 34 34 34 35 35 35 34 34 34 34 33 32 31 31 31 31 31 31 32 33 36 40 41 37 34 33 32 33 32 32 33 32 29 28 29 30 33 34 31 26 27 31 34 33 32 30 30 31 32 33 32 31 32 34 37 41 44 45 44 44 44 45 46 46 47 46 45 42
37 34 33 32 32 33 34 34 34 33 33 34 35 34 34 34 34 34 35 35 36 36 36 35 35 35 34 34 32 32 32 32 32 32 33 33 34 35 39 43 42 36 34 33 34 35 34 34 34 32 31 31 31 32 33 33 30 29 31 33 33 33 33 32 33 32 31 29 28 29 32 35 38 41 46 48 47 45 44 44 45 46 46 46 44
34 31 31 31 32 33 34 35 35 34 34 35 36 35 35 35 35 36 36 36 37 37 36 36 36 35 35 34 33 33 32 33 34 34 34 34 35 35 38 43 46 41 37 35 36 37 37 37 37 36 36 37 36 35 34 33 32 33 33 32 31 33 34 35 35 34 32 31 30 30 31 33 35 37 42 47 49 48 46 45 44 45 46 46 45
33 31 31 32 33 34 35 35 36 36 35 36 36 36 36 36 36 37 37 37 37 37 37 37 36 36 35 35 34 34 33 34 34 35 35 35 36 36 37 41 46 45 41 39 39 40 40 41 42 41 40 41 42 41 39 37 37 37 36 33 31 33 34 34 35 36 36 36 35 35 35 35 35 36 38 43 47 49 48 47 46 45 45 46 46
35 34 34 33 34 35 35 36 37 37 37 38 38 38 38 37 37 37 38 38 38 38 38 37 37 36 36 35 35 35 35 35 35 36 36 37 37 37 38 40 44 46 46 44 43 43 43 44 45 46 45 46 47 46 44 43 43 42 40 37 37 37 37 36 36 37 37 38 40 40 40 40 38 37 37 38 42 45 47 48 48 48 47 46 46
38 37 36 35 35 36 37 37 38 38 39 40 40 39 39 39 38 38 39 39 39 39 39 38 38 37 37 36 36 36 36 36 36 37 37 38 38 38 39 40 43 46 47 48 48 48 47 47 47 48 49 49 50 50 49 47 47 47 45 43 42 42 42 40 39 39 38 38 40 42 43 43 42 40 38 38 38 40 43 44 45 47 48 48 48
41 40 39 38 38 39 39 38 39 40 40 41 41 41 40 40 40 40 40 39 39 39 39 39 39 39 39 38 38 37 37 37 37 38 38 39 39 40 40 41 43 45 47 48 50 51 51 51 50 51 51 51 52 53 54 53 50 50 49 47 47 47 46 45 44 43 41 41 41 42 44 44 44 42 41 39 38 38 40 42 42 43 45 47 49
44 42 41 41 41 41 41 40 41 41 41 42 42 42 42 41 41 41 41 41 40 40 40 40 40 40 40 40 40 39 39 39 39 39 40 40 40 41 41 42 43 45 47 49 50 51 52 53 54 54 54 54 53 54 57 57 55 53 53 51 51 51 50 50 49 47 46 46 44 43 43 43 44 44 43 42 40 38 39 40 41 41 41 44 47
46 44 44 44 43 43 42 42 43 42 42 43 44 44 44 43 42 42 42 42 41 41 41 41 41 42 42 42 42 41 41 41 40 41 41 41 42 42 43 44 45 46 47 49 50 52 53 54 55 56 57 57 56 55 56 57 57 57 56 56 56 55 54 54 53 52 50 50 49 48 46 44 44 45 46 45 43 40 39 40 41 41 41 42 44
48 47 47 47 47 46 45 45 44 44 44 45 45 46 45 45 44 43 43 43 43 43 43 43 43 43 43 43 43 43 43 43 43 43 43 43 44 44 44 45 46 47 48 49 50 52 54 55 56 57 58 59 59 57 56 57 58 58 59 59 59 58 58 58 57 56 55 54 55 55 53 50 47 46 46 47 45 43 42 41 41 41 41 42 43
Wind_Direction
285 285 286 287 288 288 289 290 291 292 292 293 294 295 295 295 296 296 297 297 298 299 301 302 303 304 304 305 306 306 306 306 306 306 307 307 307 307 307 307 307 307 306 306 307 306 306 307 307 306 305 305 305 305 305 304 302 299 293 287 282 275 271 270 265 260 258 250 240 236 234 229 225 226 228 235 241 244 246 244 238 233 229 228 230
285 285 286 286 287 288 288 289 290 291 292 293 293 294 294 295 295 296 296 297 298 300 301 302 303 303 304 304 305 305 305 305 305 305 306 306 306 306 306 306 306 305 305 305 305 305 305 306 305 305 304 304 304 304 304 303 300 294 287 282 275 269 267 264 258 253 250 244 237 228 226 225 223 228 229 234 239 242 243 242 238 235 231 229 231
285 285 286 286 287 287 288 289 289 290 291 292 293 293 294 294 295 296 297 298 299 300 301 301 302 302 303 303 303 304 304 304 304 304 305 305 305 305 305 305 304 304 304 304 304 304 304 304 304 303 303 303 303 303 302 301 297 289 282 275 268 263 262 259 252 246 244 241 233 221 219 223 223 229 231 233 236 240 241 240 239 237 234 231 231
285 285 286 286 286 287 287 288 289 290 291 291 292 293 293 294 295 296 297 298 298 299 299 300 300 301 301 302 302 302 303 303 303 304 304 304 304 304 304 304 303 303 303 303 303 303 303 303 302 302 302 302 302 302 301 298 292 283 276 269 262 259 258 254 244 239 239 237 229 217 216 221 225 231 231 231 232 235 236 236 236 237 236 234 234
285 285 286 286 286 287 288 289 290 290 291 291 292 293 293 294 295 295 296 297 297 298 298 299 299 300 300 301 301 301 302 302 302 303 303 303 303 303 303 303 302 302 302 302 302 302 302 301 301 301 301 301 301 300 298 294 286 277 270 264 259 255 254 249 237 231 233 231 221 212 215 219 223 231 231 230 228 231 232 232 234 236 237 236 237
285 286 286 287 287 288 289 289 290 290 291 291 292 292 293 293 294 295 295 296 297 297 297 298 298 299 299 300 300 301 301 301 302 302 302 302 302 302 303 302 302 301 301 301 301 301 301 300 300 300 300 300 299 298 295 289 280 272 267 261 256 253 251 245 235 230 229 224 214 208 213 214 219 227 229 228 225 228 230 230 231 234 236 236 238
285 286 286 286 287 288 289 289 290 290 290 291 291 292 292 293 293 294 295 295 296 296 297 297 297 298 299 299 300 300 300 301 301 301 301 301 301 302 302 301 301 300 300 300 300 300 300 299 299 299 299 299 297 295 291 284 275 269 264 259 254 251 249 243 235 231 226 220 211 207 209 210 218 226 227 226 224 226 228 228 229 231 233 234 237
284 285 285 286 287 288 288 289 289 289 290 290 290 291 291 292 293 294 294 294 295 295 296 296 297 297 298 298 299 299 300 300 300 300 301 301 301 301 301 300 300 299 299 299 299 299 298 298 298 298 298 297 295 293 287 279 270 265 260 255 251 249 248 241 233 229 226 221 212 206 206 209 218 227 228 225 222 224 226 226 227 229 230 232 235
283 284 285 286 286 287 287 287 288 288 289 289 290 290 291 292 292 293 293 294 294 295 295 296 296 297 297 298 298 299 299 299 299 300 300 300 300 300 300 299 298 298 298 298 297 297 297 297 297 297 296 295 293 290 282 273 265 261 256 251 248 248 247 239 230 227 224 222 212 206 205 206 218 231 230 224 220 220 222 224 226 227 228 229 232
282 283 284 285 286 286 286 286 287 288 288 289 289 290 290 291 292 292 292 293 294 294 295 296 296 296 297 297 297 298 298 298 299 299 299 299 299 299 298 298 297 297 296 296 296 296 296 296 296 296 294 293 290 285 277 269 262 257 252 248 246 247 246 239 232 226 222 222 214 208 205 206 220 233 233 225 219 218 219 221 224 226 227 227 229
282 283 284 284 285 285 285 286 287 287 288 288 288 289 290 290 291 291 292 293 293 294 295 295 295 296 296 297 297 297 297 298 298 298 299 298 298 298 297 297 296 295 295 295 295 295 295 296 295 294 292 290 286 281 273 264 257 253 248 246 246 247 246 240 235 225 219 223 218 209 205 209 220 230 234 226 218 217 218 219 222 225 226 226 226
283 283 284 284 284 285 285 286 286 287 287 287 288 288 289 290 291 291 292 292 293 293 294 294 295 295 296 296 296 296 296 297 297 297 298 298 297 296 296 296 295 294 294 293 293 294 294 295 293 291 289 285 282 277 268 258 252 247 244 245 246 246 244 240 236 227 217 219 218 210 206 211 219 225 232 228 220 217 217 218 221 224 226 226 225
282 283 283 283 284 284 285 285 285 286 286 286 287 288 289 290 290 291 291 292 292 293 293 294 294 294 295 295 295 295 296 296 296 296 297 297 296 295 295 294 293 293 292 292 293 293 293 293 290 289 285 280 278 273 261 250 246 242 241 244 245 244 243 239 237 234 223 216 214 210 206 209 216 223 230 229 223 218 217 218 220 224 226 228 227
282 282 283 283 284 284 284 284 285 285 286 286 287 288 289 289 290 290 291 291 292 292 293 293 293 294 294 294 294 295 295 295 295 296 296 295 295 294 294 293 292 292 291 291 292 292 292 290 288 286 280 276 275 266 253 245 242 240 240 244 245 244 244 241 237 236 228 217 213 211 206 206 212 221 227 228 224 219 218 218 220 223 226 228 229
282 282 282 283 283 283 284 284 285 285 286 286 287 287 288 289 289 290 290 291 291 292 292 292 293 293 293 294 294 294 294 294 294 295 295 294 293 293 292 292 291 291 291 291 291 290 290 288 285 281 275 272 268 258 246 241 240 239 240 244 246 246 244 240 237 234 226 218 214 212 209 207 208 216 223 226 225 220 218 219 220 222 224 228 230
282 282 282 282 283 283 284 285 285 285 286 286 287 287 288 288 289 289 290 290 291 291 291 292 292 292 293 293 293 293 294 294 294 294 294 293 292 291 291 291 290 290 290 290 289 289 288 285 281 277 272 267 260 250 241 240 240 238 240 245 247 246 244 239 236 233 225 218 214 212 212 210 209 212 220 226 225 222 220 220 221 222 224 226 229
281 281 282 282 283 284 284 284 284 285 285 286 287 287 287 288 288 288 289 289 290 290 290 291 291 291 292 292 292 293 293 293 293 293 292 291 291 290 290 290 289 289 289 288 288 287 285 282 277 272 266 259 252 244 240 240 239 239 241 246 248 247 243 238 235 231 224 218 214 212 214 214 211 212 218 226 228 224 222 222 221 220 222 226 229
281 281 282 283 284 284 284 284 284 285 285 286 286 287 287 287 287 287 288 288 289 289 289 290 290 291 291 291 292 292 292 292 292 291 291 290 290 289 289 288 288 287 287 287 286 284 282 278 272 266 259 251 246 241 240 240 239 240 242 246 249 247 242 237 233 228 223 218 215 213 216 218 215 214 216 225 230 228 224 223 222 221 221 224 229
281 282 283 283 283 283 283 283 284 285 285 285 286 286 286 286 286 287 287 288 288 288 288 289 289 290 290 290 291 291 291 291 290 290 289 289 289 288 288 287 287 286 286 284 283 280 277 272 265 259 253 244 241 240 240 240 240 241 242 246 248 246 241 235 230 226 221 217 216 214 216 221 221 218 218 224 231 232 229 225 225 225 223 224 228
281 281 282 282 282 282 282 283 283 284 284 285 285 285 285 285 286 286 286 287 287 287 288 288 289 289 289 289 290 290 290 289 289 288 288 288 288 287 287 286 285 285 284 282 279 275 271 264 257 252 244 237 237 239 240 241 242 242 242 246 247 245 240 234 227 223 220 217 217 216 217 223 225 222 222 226 231 233 233 229 228 227 226 226 227
280 280 281 281 281 281 281 282 283 283 283 283 284 284 284 285 285 285 286 286 286 286 287 287 288 288 288 289 289 289 288 288 287 287 287 286 286 286 286 285 284 283 281 278 274 269 264 256 249 243 235 231 235 238 240 241 243 243 243 247 247 243 238 231 224 221 219 217 217 217 217 223 227 227 226 228 231 233 235 234 231 228 227 227 227
279 279 280 280 280 280 280 281 281 281 282 282 282 283 283 284 284 285 285 286 286 286 286 286 287 287 287 288 287 287 287 286 286 286 285 285 285 285 284 283 282 281 278 273 269 263 256 248 241 236 230 230 234 238 239 241 244 245 247 249 247 242 235 229 223 218 218 218 218 218 218 220 226 230 231 230 231 232 236 238 235 230 228 227 228
278 278 278 278 278 279 279 280 280 281 281 281 281 282 282 283 283 284 285 285 285 285 285 286 286 286 287 287 286 285 285 285 285 285 284 284 283 283 282 280 279 277 273 268 264 257 248 242 235 231 231 231 236 239 241 243 246 248 250 251 246 239 233 227 222 216 217 218 218 219 217 217 224 230 234 233 231 232 237 241 240 234 229 228 228
277 276 276 277 277 278 279 279 280 280 280 280 281 281 282 282 283 284 284 284 284 284 285 285 285 285 285 285 284 284 284 284 284 284 283 282 281 280 279 277 275 272 267 261 256 248 243 241 235 230 232 234 238 242 245 247 249 251 251 250 244 236 231 226 221 216 217 219 218 218 216 215 220 226 233 235 232 231 235 242 244 237 231 229 229
275 274 275 275 276 277 278 278 279 279 279 279 280 281 281 282 282 282 282 283 283 284 284 284 284 284 284 283 283 283 283 283 283 282 281 280 279 277 275 273 271 266 260 254 246 241 241 242 238 232 233 236 240 243 247 250 252 252 250 248 240 232 229 224 220 217 217 219 220 219 215 214 217 223 230 234 235 233 235 242 247 242 236 235 235
273 273 274 275 276 277 277 277 277 277 278 279 279 280 280 280 281 281 282 282 283 283 283 282 282 282 282 282 282 282 282 282 281 280 279 278 277 275 272 269 266 261 253 246 239 238 240 241 240 234 233 237 240 244 249 251 251 249 246 242 235 229 227 223 219 218 218 219 221 221 217 215 218 224 228 230 233 235 236 239 243 245 243 241 241
273 273 274 275 275 276 276 276 276 277 277 278 278 278 279 279 280 280 281 281 282 281 281 281 281 281 281 281 281 281 281 280 280 279 277 276 274 272 270 266 263 256 248 241 237 238 240 240 240 235 233 236 240 244 247 248 247 244 240 237 234 230 226 222 220 218 219 219 220 222 219 216 217 223 227 227 229 230 233 234 238 246 249 246 246
272 273 274 274 275 275 275 275 276 276 277 277 277 278 279 279 279 280 280 280 280 280 280 280 280 280 281 281 280 280 280 279 278 276 275 274 271 270 270 266 260 252 245 240 237 239 240 239 238 235 233 236 239 239 239 240 241 240 238 236 235 233 228 223 220 219 220 221 221 222 221 218 218 220 223 224 226 228 231 233 237 244 247 247 249
271 272 273 273 274 274 274 275 275 276 276 277 277 278 278 279 279 279 279 279 279 279 279 279 280 280 280 280 279 279 278 277 275 274 273 270 267 264 265 264 259 252 244 239 239 240 241 239 236 233 232 233 233 230 229 232 236 238 240 239 237 236 232 226 222 220 221 223 223 223 223 223 222 224 225 224 225 228 231 233 236 239 240 240 245
269 271 272 272 273 274 274 274 274 275 275 276 277 277 278 278 277 277 277 277 277 278 278 279 280 280 279 279 278 276 276 275 273 271 268 264 259 251 247 253 256 253 246 241 240 241 242 238 233 230 228 226 224 222 220 221 228 236 241 242 240 237 236 232 225 222 221 223 225 224 226 227 227 227 227 228 228 229 231 234 236 237 237 238 243
267 268 270 271 272 273 274 274 274 274 274 275 275 275 275 275 276 276 276 276 276 277 278 279 279 278 277 276 275 275 274 273 271 267 261 257 253 246 240 241 245 246 246 244 241 243 243 235 229 227 223 218 215 214 212 213 222 233 241 246 245 240 239 238 232 226 223 223 224 225 226 229 230 229 228 229 229 230 232 234 236 236 236 238 243
266 267 267 268 269 271 272 273 273 273 273 273 274 274 273 273 273 274 274 275 275 275 276 275 275 275 276 274 273 273 272 270 268 263 258 254 253 249 239 235 238 239 243 251 250 248 240 229 224 222 218 214 209 208 209 214 222 230 239 248 250 245 240 240 238 232 227 224 225 225 226 229 231 232 232 231 232 232 232 234 236 236 236 238 242
267 267 267 267 268 268 269 270 270 271 271 272 272 273 272 272 272 273 273 274 274 273 273 272 270 270 271 270 270 270 268 264 261 258 253 251 252 251 239 231 233 230 231 249 255 250 237 226 221 217 214 210 205 207 212 219 227 231 236 244 251 251 245 241 240 237 232 227 225 225 226 228 230 233 234 234 235 235 235 236 237 237 236 237 241
268 268 268 267 267 267 266 267 268 268 269 270 270 271 271 271 272 272 272 272 272 271 270 269 268 268 268 267 267 265 263 257 252 250 247 245 245 245 238 230 227 221 219 234 246 248 240 228 221 218 216 211 208 211 216 222 227 230 233 239 249 256 253 245 240 238 235 230 226 225 225 226 229 232 234 235 237 238 239 239 239 238 236 236 240
267 267 267 266 266 266 266 266 266 267 267 268 269 269 269 270 270 270 270 269 268 268 267 266 266 266 265 265 264 261 258 253 247 244 239 236 234 233 232 231 228 221 215 218 226 238 241 230 219 217 217 216 217 220 221 223 225 228 231 234 246 257 257 251 244 239 236 232 228 226 226 226 227 229 232 234 236 237 239 240 239 238 237 237 238
265 265 265 264 264 264 265 265 265 266 267 267 268 268 268 268 268 268 267 266 265 264 264 264 263 263 262 262 261 259 254 249 244 237 228 223 225 223 221 226 232 229 220 213 213 225 235 228 217 214 216 218 221 223 224 226 226 227 229 229 238 251 254 253 249 244 239 235 230 228 229 228 227 227 228 230 232 234 235 235 236 236 237 238 237
262 262 262 263 263 263 263 263 264 264 265 266 266 267 267 266 265 265 264 263 262 261 260 260 261 260 260 259 258 256 252 247 241 233 223 219 220 214 209 215 225 231 229 220 217 224 232 229 220 215 217 220 222 223 226 229 231 231 231 229 231 240 248 249 249 247 243 239 233 231 232 232 230 228 228 228 230 232 233 233 233 234 236 237 236
260 260 261 261 262 262 262 262 261 261 261 262 263 264 264 264 264 262 261 260 260 259 258 257 258 259 258 257 255 254 251 247 240 231 224 220 217 207 205 214 217 221 229 227 225 228 230 231 227 222 220 222 223 227 229 230 233 236 236 235 233 235 241 245 247 248 245 240 236 234 234 235 235 233 231 230 230 231 233 234 234 235 237 238 239
258 259 260 260 261 261 261 260 259 258 257 258 258 259 261 262 262 262 260 258 257 257 257 256 257 257 257 255 253 251 249 246 240 232 226 222 216 204 205 214 214 214 221 224 226 228 228 228 231 231 230 229 227 229 234 234 233 236 238 239 238 236 239 244 246 248 246 242 238 236 235 235 236 237 235 233 233 233 234 235 236 238 239 241 242
256 258 258 259 259 259 259 257 256 255 254 254 254 255 257 258 259 260 259 258 256 256 256 256 256 256 255 254 253 250 248 246 241 234 229 226 219 207 206 211 210 213 218 221 224 225 225 225 228 233 236 236 233 230 237 241 240 239 238 238 238 237 240 244 246 247 248 244 240 238 237 235 235 237 238 237 236 236 236 236 237 239 241 243 244
255 256 256 257 257 257 256 254 253 252 251 251 252 252 253 254 255 256 257 257 257 256 256 255 254 254 253 253 252 250 247 245 242 237 233 230 224 212 208 208 208 212 216 220 224 223 221 220 221 227 232 235 234 233 238 243 244 243 241 240 238 238 241 244 246 247 247 247 242 239 238 236 234 235 238 239 240 240 240 239 240 241 242 244 246
255 255 255 256 256 256 254 252 251 251 251 251 251 251 251 251 252 253 255 256 256 256 256 255 254 253 253 251 250 248 247 245 242 239 235 233 229 219 211 207 206 212 215 217 220 220 218 216 215 218 223 227 230 233 237 238 239 242 243 242 239 239 242 246 248 248 249 251 249 245 242 239 236 235 236 239 240 241 242 242 243 243 244 244 245
256 256 255 254 254 254 254 254 254 252 252 252 251 250 250 250 251 252 253 254 254 255 255 254 254 253 252 251 250 248 246 244 242 239 237 234 232 226 216 208 206 210 213 214 217 217 215 213 212 213 216 220 221 226 234 235 235 240 241 240 240 240 242 246 248 249 249 252 255 255 251 247 243 240 238 239 241 242 243 243 244 245 245 245 245
257 257 255 253 252 253 254 256 256 255 253 252 251 250 249 250 251 252 252 253 253 253 254 253 253 252 251 250 249 247 245 244 242 239 237 236 233 230 223 214 210 209 208 210 214 216 215 213 214 213 216 220 219 219 226 229 231 237 238 238 242 245 245 247 248 248 248 251 257 260 259 255 251 247 242 241 242 244 244 245 245 246 247 248 247
259 257 255 253 252 252 253 256 257 256 255 253 251 250 250 250 250 251 251 252 252 253 253 253 252 251 250 249 248 247 245 243 242 240 237 236 234 232 228 221 216 212 208 207 211 214 215 215 216 217 219 225 227 224 222 224 228 233 235 234 237 244 248 249 249 250 250 252 257 261 263 260 254 251 247 243 243 245 246 247 247 248 249 250 250
259 257 255 253 253 253 254 254 256 256 255 253 252 250 249 250 250 250 250 251 252 252 253 253 252 251 250 249 247 246 244 243 242 240 238 237 235 233 231 227 223 219 214 210 210 212 215 215 216 219 221 226 233 233 226 223 226 231 233 232 233 239 244 245 248 250 251 253 255 258 261 262 259 254 249 245 244 245 247 247 248 248 249 250 251
260 259 257 256 255 255 254 254 254 254 253 253 252 250 249 249 249 249 250 250 251 252 252 252 252 251 250 249 247 246 244 242 241 241 239 237 236 235 233 230 228 225 221 217 214 214 216 217 217 218 221 224 229 234 233 228 226 228 231 233 235 239 241 241 244 248 250 253 255 256 257 258 258 256 251 245 241 243 246 247 247 248 248 249 250
261 260 260 259 257 256 256 255 254 254 252 251 251 251 250 249 249 249 249 250 250 250 251 251 251 250 250 249 248 246 244 242 241 241 240 238 237 235 234 232 231 229 227 225 221 218 217 219 220 219 221 224 226 230 234 233 231 228 229 232 235 238 240 240 240 243 246 249 252 253 254 253 251 253 252 246 240 239 243 247 248 248 248 248 248
262 261 261 261 260 259 258 257 256 255 253 252 251 251 251 250 249 249 250 250 250 249 249 249 249 249 248 248 248 247 245 243 241 240 240 240 238 236 235 234 233 232 231 229 227 225 222 220 220 220 220 223 225 227 231 234 234 233 231 232 234 237 239 240 239 240 243 246 247 248 252 251 248 249 251 249 245 240 239 243 246 248 248 247 247
262 262 262 262 261 260 260 258 257 257 256 254 252 251 251 251 251 250 250 250 249 249 249 248 248 248 248 247 247 247 247 245 243 241 240 240 240 238 237 235 234 233 233 232 231 230 229 226 222 220 220 221 224 225 227 230 234 236 236 235 235 237 240 242 242 242 243 246 247 248 251 252 250 249 251 252 251 247 243 241 243 245 246 246 246
261 261 261 261 261 261 260 259 258 257 256 255 253 252 251 251 251 251 250 250 249 249 249 248 248 247 247 247 247 246 246 245 244 242 240 240 240 240 239 237 236 235 235 235 234 232 232 232 230 227 224 224 225 227 227 227 230 233 236 237 236 237 239 242 244 244 245 247 250 252 253 253 252 251 251 254 256 256 252 247 245 243 243 244 245
Height
10898 10897 10896 10895 10894 10894 10893 10892 10892 10891 10891 10890 10890 10890 10890 10889 10888 10887 10886 10886 10885 10884 10882 10881 10881 10880 10879 10877 10876 10875 10874 10873 10871 10870 10869 10867 10865 10863 10861 10858 10855 10853 10851 10850 10848 10846 10845 10844 10842 10840 10838 10836 10834 10832 10831 10830 10828 10827 10826 10825 10825 10825 10825 10824 10824 10823 10823 10823 10824 10825 10826 10828 10829 10830 10830 10831 10832 10833 10833 10834 10835 10836 10836 10837 10837
10893 10892 10892 10891 10890 10889 10888 10888 10887 10887 10886 10885 10885 10885 10884 10884 10883 10882 10881 10881 10880 10880 10878 10877 10876 10875 10874 10873 10872 10871 10869 10868 10867 10865 10864 10862 10860 10859 10857 10854 10851 10849 10847 10846 10844 10842 10841 10840 10838 10836 10834 10832 10830 10829 10828 10827 10826 10824 10823 10822 10823 10823 10823 10822 10822 10821 10821 10821 10822 10823 10825 10826 10828 10828 10829 10830 10831 10832 10832 10833 10834 10834 10835 10836 10836
10887 10887 10887 10887 10886 10885 10884 10883 10883 10882 10882 10881 10880 10880 10879 10879 10878 10877 10876 10876 10875 10875 10874 10873 10871 10871 10870 10869 10867 10866 10865 10864 10862 10860 10859 10858 10856 10854 10852 10850 10847 10845 10843 10841 10840 10838 10837 10836 10834 10832 10830 10828 10826 10825 10824 10823 10822 10821 10820 10820 10820 10820 10820 10820 10819 10819 10818 10819 10820 10821 10823 10825 10826 10827 10828 10829 10830 10830 10831 10832 10832 10833 10834 10834 10835
10883 10882 10882 10882 10881 10880 10880 10879 10879 10878 10877 10876 10875 10874 10874 10873 10872 10872 10871 10870 10870 10869 10868 10868 10867 10866 10865 10864 10863 10861 10860 10859 10858 10856 10854 10853 10851 10849 10848 10845 10843 10840 10839 10837 10835 10834 10833 10832 10830 10828 10826 10824 10823 10821 10820 10819 10819 10818 10817 10817 10817 10818 10817 10817 10817 10816 10816 10817 10818 10820 10822 10823 10825 10826 10826 10827 10828 10829 10830 10830 10831 10831 10832 10833 10833
10878 10877 10877 10876 10876 10876 10876 10875 10874 10873 10872 10870 10869 10869 10868 10867 10866 10866 10865 10865 10864 10864 10863 10862 10862 10861 10860 10859 10858 10856 10855 10854 10853 10851 10850 10848 10846 10845 10843 10841 10838 10836 10834 10833 10831 10830 10829 10827 10826 10824 10822 10821 10819 10818 10817 10816 10815 10815 10815 10814 10815 10815 10815 10815 10814 10814 10814 10815 10816 10818 10820 10822 10823 10824 10825 10826 10827 10827 10828 10828 10829 10830 10830 10831 10832
10873 10872 10871 10871 10870 10870 10870 10869 10868 10867 10866 10864 10863 10862 10861 10861 10860 10860 10859 10859 10858 10858 10858 10857 10856 10855 10854 10853 10852 10851 10850 10849 10848 10846 10845 10843 10841 10840 10839 10836 10833 10831 10829 10828 10826 10825 10824 10823 10821 10820 10818 10817 10815 10814 10813 10812 10812 10812 10812 10812 10812 10812 10812 10812 10812 10812 10812 10813 10814 10816 10818 10820 10821 10822 10823 10824 10825 10826 10826 10827 10827 10828 10828 10829 10830
10867 10866 10865 10865 10865 10865 10864 10863 10862 10861 10859 10858 10857 10856 10855 10855 10855 10854 10854 10853 10852 10852 10852 10851 10850 10849 10849 10848 10847 10845 10844 10842 10842 10841 10840 10838 10836 10835 10834 10831 10829 10826 10824 10823 10822 10821 10820 10819 10817 10816 10814 10813 10812 10810 10810 10809 10809 10809 10809 10809 10810 10810 10810 10810 10809 10809 10810 10811 10812 10814 10816 10818 10819 10820 10821 10822 10823 10824 10825 10825 10825 10826 10827 10827 10828
10862 10860 10860 10860 10860 10859 10858 10857 10855 10854 10853 10852 10850 10849 10849 10849 10849 10848 10847 10847 10846 10846 10846 10845 10844 10844 10843 10842 10841 10839 10838 10836 10835 10835 10834 10832 10831 10829 10828 10826 10824 10821 10819 10818 10817 10816 10815 10814 10813 10812 10810 10809 10808 10807 10806 10806 10806 10807 10807 10806 10807 10807 10807 10808 10808 10808 10808 10808 10810 10812 10814 10816 10817 10819 10819 10820 10821 10822 10823 10823 10824 10824 10825 10825 10826
10855 10855 10855 10856 10855 10854 10852 10850 10849 10848 10847 10845 10844 10843 10843 10842 10842 10842 10841 10840 10840 10840 10839 10839 10838 10838 10837 10836 10835 10834 10832 10830 10829 10829 10828 10827 10825 10824 10823 10821 10819 10816 10814 10814 10812 10811 10811 10810 10809 10808 10806 10805 10804 10804 10803 10803 10803 10804 10804 10803 10804 10805 10805 10805 10806 10806 10806 10806 10808 10810 10812 10814 10816 10817 10818 10818 10819 10820 10821 10821 10822 10822 10823 10823 10824
10849 10850 10851 10851 10850 10848 10846 10845 10844 10843 10841 10839 10838 10837 10837 10836 10836 10835 10835 10834 10834 10833 10833 10833 10832 10831 10831 10830 10829 10828 10827 10825 10823 10822 10822 10821 10820 10819 10818 10816 10814 10811 10810 10809 10808 10807 10807 10806 10805 10803 10802 10801 10801 10800 10800 10800 10800 10801 10801 10801 10801 10802 10803 10803 10804 10804 10804 10805 10806 10808 10810 10812 10814 10815 10815 10816 10817 10817 10818 10819 10819 10820 10821 10821 10822
10844 10845 10845 10844 10843 10841 10840 10839 10838 10836 10834 10833 10831 10831 10830 10830 10830 10829 10828 10828 10827 10827 10827 10826 10825 10825 10824 10823 10823 10822 10821 10819 10817 10816 10816 10815 10814 10813 10812 10811 10809 10806 10805 10804 10803 10802 10802 10802 10800 10799 10798 10797 10797 10797 10797 10797 10797 10798 10798 10798 10799 10800 10801 10801 10802 10802 10803 10804 10805 10806 10808 10810 10811 10812 10813 10814 10814 10815 10816 10817 10817 10818 10819 10819 10820
10837 10838 10837 10836 10835 10834 10834 10833 10832 10830 10828 10826 10825 10824 10824 10824 10823 10823 10822 10821 10821 10821 10821 10820 10819 10818 10818 10817 10816 10815 10815 10813 10812 10811 10810 10809 10808 10807 10806 10806 10804 10802 10800 10799 10798 10798 10798 10797 10796 10795 10794 10793 10793 10794 10794 10794 10794 10795 10795 10796 10797 10798 10798 10799 10800 10800 10801 10802 10803 10804 10806 10808 10809 10810 10810 10811 10812 10813 10814 10814 10815 10816 10816 10817 10818
10829 10829 10829 10828 10828 10828 10828 10826 10825 10823 10821 10820 10819 10818 10818 10818 10817 10816 10815 10815 10815 10814 10814 10813 10813 10812 10811 10811 10810 10809 10808 10807 10806 10805 10804 10803 10802 10801 10800 10799 10798 10796 10794 10793 10793 10793 10793 10793 10792 10792 10791 10789 10790 10790 10791 10791 10791 10792 10793 10793 10794 10795 10795 10796 10797 10798 10798 10799 10800 10802 10804 10805 10806 10807 10808 10809 10810 10811 10812 10812 10813 10814 10814 10815 10816
10821 10821 10821 10821 10821 10821 10820 10819 10818 10816 10815 10814 10813 10812 10811 10811 10810 10809 10808 10808 10808 10808 10807 10807 10806 10805 10805 10804 10803 10802 10801 10801 10800 10799 10799 10798 10795 10795 10794 10793 10792 10791 10790 10788 10788 10788 10788 10789 10788 10788 10787 10786 10786 10787 10788 10788 10788 10789 10790 10791 10791 10792 10792 10794 10795 10796 10796 10796 10797 10799 10801 10803 10804 10805 10806 10807 10808 10809 10809 10810 10811 10812 10813 10813 10814
10814 10814 10814 10814 10814 10813 10813 10812 10810 10809 10808 10807 10806 10805 10805 10804 10803 10802 10801 10801 10801 10801 10800 10799 10799 10798 10797 10797 10797 10796 10795 10794 10793 10793 10793 10792 10790 10789 10788 10787 10786 10786 10785 10783 10783 10783 10784 10784 10784 10784 10784 10782 10783 10784 10784 10784 10785 10786 10787 10788 10788 10789 10790 10791 10792 10793 10793 10794 10795 10797 10799 10800 10801 10803 10804 10805 10806 10807 10807 10808 10809 10810 10811 10812 10812
10806 10805 10805 10805 10806 10806 10805 10804 10802 10801 10801 10800 10799 10798 10798 10797 10796 10795 10794 10794 10794 10793 10793 10792 10791 10790 10790 10790 10790 10790 10789 10788 10787 10786 10786 10786 10784 10783 10782 10782 10781 10780 10780 10779 10777 10778 10779 10780 10780 10780 10780 10779 10779 10780 10781 10781 10782 10783 10784 10785 10786 10787 10787 10788 10789 10790 10791 10791 10793 10795 10797 10798 10799 10801 10802 10803 10804 10804 10805 10806 10807 10808 10809 10810 10810
10797 10796 10796 10797 10798 10798 10797 10795 10794 10793 10793 10792 10792 10791 10791 10790 10789 10789 10788 10787 10787 10786 10786 10785 10784 10784 10783 10783 10783 10783 10782 10781 10780 10779 10779 10779 10778 10778 10777 10776 10775 10775 10775 10774 10773 10773 10775 10776 10776 10776 10776 10776 10776 10777 10777 10778 10779 10780 10781 10782 10783 10784 10784 10785 10786 10787 10788 10789 10790 10792 10794 10796 10797 10799 10800 10801 10802 10802 10803 10804 10805 10806 10807 10808 10809
10788 10788 10789 10790 10790 10789 10788 10786 10785 10785 10785 10784 10784 10783 10783 10782 10782 10782 10781 10781 10780 10779 10778 10778 10778 10777 10777 10776 10776 10776 10776 10775 10774 10773 10772 10772 10771 10772 10771 10770 10770 10769 10769 10769 10769 10769 10771 10771 10772 10772 10773 10773 10773 10774 10774 10775 10776 10776 10778 10780 10781 10781 10781 10782 10783 10784 10785 10787 10788 10790 10793 10794 10796 10797 10798 10799 10800 10801 10801 10802 10803 10804 10805 10806 10807
10779 10780 10782 10782 10781 10780 10779 10778 10777 10777 10777 10776 10776 10775 10774 10774 10774 10774 10774 10774 10774 10772 10771 10771 10771 10771 10770 10769 10770 10770 10769 10769 10768 10767 10766 10765 10765 10765 10765 10765 10764 10764 10764 10765 10765 10765 10766 10767 10768 10769 10769 10770 10770 10771 10771 10772 10772 10773 10775 10777 10778 10778 10778 10778 10780 10782 10783 10785 10786 10788 10791 10792 10794 10795 10796 10797 10798 10799 10800 10801 10802 10803 10804 10805 10805
10772 10773 10774 10773 10773 10771 10770 10770 10770 10770 10769 10768 10767 10767 10766 10766 10767 10766 10766 10767 10766 10765 10764 10764 10764 10764 10763 10763 10763 10763 10763 10763 10762 10761 10760 10759 10758 10758 10759 10759 10759 10759 10760 10760 10760 10760 10762 10763 10764 10765 10766 10767 10768 10767 10768 10768 10769 10770 10771 10773 10775 10775 10775 10775 10777 10779 10780 10782 10784 10786 10788 10790 10792 10793 10794 10795 10796 10797 10798 10800 10801 10802 10802 10803 10803
10765 10766 10765 10765 10764 10763 10762 10762 10763 10762 10761 10760 10759 10759 10758 10759 10759 10759 10758 10758 10758 10757 10757 10757 10757 10757 10757 10756 10756 10756 10756 10757 10756 10755 10755 10753 10753 10752 10752 10753 10754 10755 10755 10755 10755 10756 10758 10759 10760 10761 10763 10764 10765 10764 10764 10765 10766 10766 10768 10770 10772 10772 10771 10772 10774 10776 10777 10779 10781 10783 10786 10788 10790 10792 10793 10794 10795 10796 10797 10798 10799 10800 10800 10801 10801
10758 10758 10757 10756 10755 10754 10755 10755 10755 10754 10753 10752 10752 10751 10751 10751 10751 10751 10750 10750 10750 10750 10750 10750 10750 10750 10750 10750 10750 10750 10750 10750 10750 10749 10749 10748 10748 10747 10747 10747 10748 10750 10750 10750 10751 10752 10754 10755 10756 10758 10759 10761 10761 10760 10761 10762 10762 10763 10765 10766 10768 10769 10768 10769 10771 10773 10774 10776 10779 10780 10783 10785 10788 10790 10791 10792 10793 10794 10795 10796 10797 10798 10798 10799 10799
10750 10749 10748 10747 10746 10746 10747 10747 10746 10746 10745 10745 10744 10744 10744 10744 10744 10743 10743 10743 10742 10742 10743 10743 10743 10743 10744 10744 10743 10743 10743 10744 10744 10743 10743 10743 10743 10743 10742 10742 10743 10745 10746 10746 10747 10748 10750 10751 10753 10754 10756 10757 10758 10757 10758 10759 10759 10760 10761 10762 10764 10766 10765 10766 10768 10770 10772 10773 10775 10777 10780 10782 10785 10787 10789 10790 10791 10793 10794 10794 10795 10796 10796 10796 10797
10740 10739 10737 10737 10738 10739 10739 10739 10737 10737 10736 10736 10736 10736 10737 10737 10737 10736 10736 10735 10735 10736 10736 10736 10735 10736 10737 10737 10736 10737 10737 10738 10738 10738 10738 10738 10738 10738 10737 10737 10739 10740 10741 10742 10743 10744 10746 10747 10749 10750 10752 10753 10754 10754 10755 10755 10756 10757 10758 10759 10760 10762 10762 10764 10765 10767 10769 10770 10772 10774 10777 10779 10782 10784 10786 10788 10789 10791 10791 10792 10793 10793 10794 10794 10794
10730 10729 10728 10729 10730 10732 10732 10731 10729 10728 10728 10728 10728 10729 10730 10730 10729 10729 10728 10728 10729 10730 10729 10729 10728 10729 10730 10730 10730 10731 10731 10732 10732 10732 10732 10733 10732 10733 10733 10733 10734 10736 10737 10738 10739 10741 10742 10744 10746 10747 10749 10750 10750 10751 10751 10751 10752 10753 10754 10755 10757 10758 10759 10761 10762 10764 10766 10767 10769 10771 10774 10776 10779 10781 10783 10785 10787 10788 10789 10790 10791 10791 10792 10792 10793
10720 10719 10719 10721 10723 10724 10724 10723 10721 10721 10721 10721 10721 10722 10723 10723 10722 10722 10722 10722 10723 10723 10722 10722 10722 10722 10723 10724 10724 10725 10726 10726 10726 10726 10727 10727 10727 10728 10729 10729 10730 10732 10733 10734 10736 10737 10739 10741 10742 10744 10745 10746 10747 10748 10748 10748 10749 10749 10750 10751 10753 10755 10756 10758 10759 10761 10763 10765 10767 10769 10771 10773 10776 10778 10780 10782 10784 10786 10787 10788 10788 10789 10790 10790 10791
10712 10711 10712 10713 10714 10715 10715 10715 10714 10713 10713 10713 10714 10715 10716 10716 10716 10716 10715 10716 10716 10716 10715 10715 10715 10716 10717 10718 10718 10719 10720 10720 10720 10721 10722 10723 10723 10724 10725 10726 10727 10729 10730 10731 10733 10734 10735 10737 10739 10741 10742 10742 10743 10744 10745 10745 10746 10746 10747 10748 10750 10751 10753 10754 10756 10758 10760 10762 10764 10766 10769 10771 10773 10775 10777 10779 10780 10782 10784 10785 10786 10786 10787 10788 10789
10703 10704 10705 10706 10706 10706 10707 10707 10706 10705 10705 10705 10706 10708 10709 10709 10709 10710 10709 10709 10710 10709 10708 10708 10709 10710 10711 10712 10712 10713 10714 10715 10715 10716 10717 10719 10720 10721 10724 10724 10725 10726 10727 10728 10730 10730 10732 10733 10735 10737 10738 10739 10740 10741 10742 10742 10743 10743 10744 10745 10747 10748 10750 10751 10753 10755 10757 10759 10761 10764 10766 10768 10769 10771 10773 10775 10777 10779 10780 10782 10783 10784 10785 10786 10786
10695 10696 10697 10698 10698 10698 10699 10700 10699 10698 10697 10698 10699 10701 10702 10702 10702 10703 10703 10703 10703 10702 10701 10702 10703 10705 10705 10705 10706 10707 10708 10709 10711 10712 10714 10715 10716 10719 10723 10724 10724 10724 10725 10726 10727 10728 10728 10730 10732 10733 10735 10736 10737 10738 10739 10740 10741 10741 10741 10742 10744 10746 10747 10749 10750 10752 10754 10755 10758 10760 10763 10764 10766 10768 10770 10772 10773 10775 10777 10779 10780 10781 10782 10783 10784
10690 10690 10690 10690 10690 10690 10691 10692 10693 10692 10691 10691 10693 10694 10695 10695 10695 10696 10696 10697 10697 10695 10696 10697 10698 10698 10698 10699 10700 10701 10703 10704 10706 10708 10710 10712 10713 10716 10720 10723 10723 10722 10722 10723 10724 10725 10726 10728 10729 10730 10731 10733 10734 10735 10737 10738 10739 10739 10738 10739 10741 10743 10745 10746 10747 10748 10750 10752 10754 10757 10759 10761 10763 10765 10766 10768 10770 10772 10774 10775 10777 10778 10779 10780 10781
10686 10687 10686 10685 10683 10682 10682 10683 10685 10685 10685 10686 10687 10689 10690 10689 10689 10689 10690 10691 10691 10690 10691 10692 10693 10692 10692 10693 10694 10696 10698 10700 10702 10704 10706 10709 10710 10713 10717 10722 10721 10719 10720 10721 10722 10723 10724 10725 10726 10727 10728 10730 10731 10733 10734 10735 10736 10737 10737 10737 10738 10740 10742 10743 10744 10746 10747 10748 10750 10753 10756 10757 10759 10761 10763 10765 10766 10768 10770 10772 10773 10775 10776 10777 10779
10682 10683 10683 10682 10680 10678 10676 10676 10676 10677 10678 10679 10681 10683 10684 10684 10684 10684 10684 10685 10685 10686 10686 10686 10688 10688 10688 10689 10689 10691 10694 10697 10698 10700 10703 10706 10708 10710 10714 10717 10716 10718 10720 10719 10719 10720 10720 10722 10723 10725 10726 10727 10729 10730 10732 10733 10734 10735 10735 10735 10736 10738 10740 10740 10741 10743 10744 10745 10747 10749 10752 10754 10755 10757 10759 10761 10763 10765 10766 10768 10770 10771 10773 10774 10776
10673 10675 10676 10677 10676 10675 10673 10671 10670 10671 10671 10672 10675 10676 10677 10678 10678 10679 10679 10680 10680 10680 10680 10681 10683 10684 10684 10685 10685 10687 10691 10693 10694 10696 10699 10703 10705 10707 10710 10711 10712 10718 10721 10718 10717 10717 10717 10719 10720 10722 10724 10725 10727 10728 10729 10730 10732 10733 10733 10734 10734 10735 10737 10738 10739 10740 10741 10742 10744 10745 10748 10750 10752 10754 10756 10758 10760 10761 10763 10765 10767 10768 10770 10772 10773
10664 10665 10667 10668 10668 10669 10669 10668 10666 10666 10666 10667 10668 10670 10671 10672 10673 10673 10674 10674 10674 10674 10674 10675 10676 10677 10678 10679 10681 10684 10686 10689 10690 10693 10696 10700 10702 10702 10703 10706 10710 10716 10718 10715 10716 10715 10715 10716 10718 10720 10722 10723 10724 10725 10726 10728 10729 10730 10731 10731 10732 10732 10733 10735 10736 10737 10738 10739 10740 10742 10743 10745 10748 10750 10752 10755 10757 10759 10760 10762 10764 10765 10767 10768 10770
10655 10656 10658 10659 10660 10661 10663 10663 10662 10662 10661 10662 10663 10665 10666 10667 10667 10668 10669 10669 10669 10669 10669 10669 10670 10672 10673 10674 10676 10680 10682 10684 10686 10689 10693 10696 10696 10695 10698 10703 10705 10708 10710 10710 10713 10713 10712 10713 10715 10716 10718 10720 10722 10723 10724 10725 10726 10727 10728 10728 10729 10730 10730 10732 10733 10734 10735 10736 10737 10738 10739 10741 10743 10746 10749 10751 10753 10755 10757 10759 10760 10762 10763 10764 10766
10648 10648 10650 10651 10653 10655 10656 10657 10657 10657 10656 10656 10657 10659 10660 10661 10662 10662 10663 10663 10664 10664 10664 10664 10665 10667 10669 10670 10672 10675 10678 10680 10682 10686 10689 10689 10688 10690 10696 10699 10698 10699 10701 10704 10708 10711 10709 10710 10711 10712 10714 10717 10719 10720 10722 10722 10723 10724 10725 10725 10727 10727 10728 10729 10730 10731 10732 10733 10734 10735 10735 10737 10739 10742 10744 10746 10749 10751 10753 10755 10757 10758 10759 10760 10762
10641 10642 10643 10645 10647 10649 10651 10652 10653 10652 10652 10652 10652 10653 10654 10655 10656 10657 10657 10658 10659 10660 10660 10660 10661 10663 10665 10666 10668 10671 10674 10676 10678 10681 10683 10682 10683 10689 10693 10692 10690 10693 10697 10701 10706 10709 10708 10708 10709 10709 10711 10713 10715 10717 10718 10720 10721 10721 10722 10723 10724 10724 10725 10726 10727 10728 10729 10730 10731 10732 10733 10734 10736 10739 10741 10743 10745 10747 10749 10751 10753 10754 10755 10757 10758
10635 10636 10638 10640 10641 10643 10645 10647 10648 10648 10648 10648 10648 10648 10648 10649 10650 10652 10653 10654 10654 10655 10656 10657 10658 10659 10661 10663 10665 10667 10669 10672 10674 10677 10679 10678 10680 10686 10688 10684 10685 10691 10696 10700 10704 10705 10704 10705 10706 10706 10707 10709 10712 10714 10715 10717 10718 10719 10720 10721 10721 10722 10722 10723 10723 10725 10726 10727 10728 10729 10731 10732 10733 10735 10738 10739 10741 10743 10745 10747 10749 10751 10752 10753 10755
10629 10631 10633 10634 10636 10638 10639 10641 10642 10643 10643 10644 10644 10644 10644 10645 10645 10647 10648 10650 10650 10651 10652 10653 10654 10655 10657 10660 10662 10664 10666 10668 10670 10673 10674 10674 10677 10682 10681 10679 10684 10691 10694 10696 10698 10699 10699 10702 10703 10704 10705 10707 10709 10711 10712 10713 10715 10716 10718 10719 10719 10720 10720 10720 10720 10721 10722 10723 10725 10726 10728 10729 10730 10732 10734 10736 10738 10740 10742 10744 10745 10747 10749 10750 10751
10624 10626 10629 10630 10631 10633 10634 10635 10636 10637 10638 10639 10639 10640 10641 10641 10641 10642 10644 10645 10646 10647 10648 10649 10650 10652 10653 10655 10658 10660 10662 10663 10666 10668 10670 10671 10673 10677 10677 10678 10685 10689 10689 10690 10692 10693 10695 10697 10699 10701 10703 10705 10707 10709 10710 10712 10713 10714 10715 10716 10716 10717 10717 10717 10717 10718 10718 10720 10722 10723 10725 10726 10727 10728 10730 10733 10735 10737 10738 10740 10742 10743 10745 10746 10748
10620 10623 10625 10625 10626 10628 10629 10630 10631 10632 10633 10634 10635 10636 10637 10637 10638 10639 10640 10641 10642 10643 10644 10646 10647 10648 10649 10652 10654 10656 10658 10660 10662 10664 10666 10667 10669 10672 10674 10677 10682 10684 10684 10686 10688 10689 10691 10694 10696 10699 10701 10702 10705 10707 10708 10710 10711 10712 10713 10713 10713 10713 10714 10714 10714 10714 10715 10717 10719 10720 10721 10723 10724 10725 10727 10729 10731 10733 10735 10736 10738 10740 10742 10743 10745
10616 10619 10621 10622 10623 10623 10624 10625 10626 10627 10628 10629 10630 10631 10632 10633 10634 10635 10636 10637 10638 10639 10640 10642 10643 10644 10646 10648 10650 10653 10654 10656 10658 10660 10662 10663 10665 10667 10670 10674 10677 10679 10680 10682 10684 10685 10688 10691 10693 10695 10697 10699 10702 10703 10704 10705 10708 10709 10709 10708 10709 10710 10711 10711 10711 10712 10713 10714 10716 10717 10719 10720 10721 10722 10723 10725 10727 10729 10731 10733 10735 10737 10738 10740 10741
10613 10615 10617 10618 10618 10618 10619 10620 10621 10623 10624 10624 10625 10626 10628 10629 10630 10631 10632 10633 10634 10635 10636 10638 10639 10640 10642 10644 10646 10649 10651 10652 10654 10656 10658 10659 10661 10663 10666 10669 10673 10675 10677 10679 10680 10681 10684 10687 10688 10690 10692 10694 10696 10698 10698 10701 10704 10704 10703 10704 10706 10707 10708 10709 10709 10710 10711 10712 10713 10715 10716 10717 10718 10719 10720 10721 10722 10724 10727 10729 10731 10733 10734 10736 10737
10609 10612 10613 10613 10613 10614 10614 10615 10616 10618 10619 10620 10620 10622 10623 10624 10626 10627 10628 10629 10630 10631 10633 10634 10635 10637 10638 10640 10642 10645 10647 10648 10650 10652 10654 10656 10657 10658 10661 10665 10668 10670 10673 10675 10676 10678 10681 10683 10684 10685 10687 10689 10690 10692 10694 10696 10698 10698 10698 10700 10703 10703 10704 10705 10706 10707 10709 10710 10710 10711 10713 10714 10715 10716 10717 10717 10718 10720 10722 10725 10727 10729 10730 10732 10733
10605 10607 10607 10608 10608 10609 10610 10611 10612 10613 10614 10615 10616 10617 10619 10620 10621 10622 10623 10624 10625 10627 10628 10630 10631 10633 10634 10636 10638 10640 10643 10644 10646 10648 10650 10651 10653 10655 10657 10660 10663 10665 10668 10671 10672 10674 10677 10678 10680 10681 10683 10685 10686 10687 10689 10691 10692 10693 10693 10696 10698 10699 10700 10701 10702 10704 10706 10707 10707 10708 10709 10710 10711 10712 10713 10714 10715 10716 10718 10720 10722 10724 10726 10728 10729
10600 10601 10602 10603 10603 10604 10605 10606 10607 10608 10609 10610 10611 10613 10614 10615 10617 10618 10619 10620 10621 10622 10624 10625 10627 10628 10630 10631 10633 10636 10638 10640 10641 10643 10645 10647 10649 10650 10653 10655 10658 10660 10663 10666 10668 10670 10672 10674 10676 10677 10679 10681 10681 10682 10684 10685 10686 10687 10689 10691 10693 10693 10695 10696 10698 10700 10702 10703 10704 10705 10705 10706 10707 10708 10709 10710 10711 10712 10714 10716 10718 10720 10722 10724 10725
10593 10595 10596 10598 10599 10599 10600 10601 10602 10603 10604 10605 10606 10608 10609 10611 10612 10613 10614 10616 10617 10618 10619 10621 10622 10624 10625 10627 10629 10631 10633 10635 10636 10638 10640 10642 10644 10646 10648 10650 10653 10655 10658 10660 10663 10665 10667 10669 10671 10673 10675 10676 10677 10678 10679 10680 10681 10683 10684 10686 10687 10688 10689 10691 10693 10695 10698 10700 10700 10701 10701 10702 10703 10703 10704 10705 10707 10708 10710 10711 10713 10715 10717 10719 10720
10587 10589 10591 10593 10593 10594 10594 10596 10597 10598 10599 10599 10600 10602 10604 10606 10608 10609 10610 10611 10613 10614 10615 10617 10618 10619 10621 10622 10624 10626 10628 10630 10632 10633 10635 10636 10638 10641 10643 10645 10647 10650 10652 10654 10657 10659 10662 10664 10666 10668 10670 10672 10673 10674 10675 10676 10677 10679 10680 10682 10683 10684 10685 10686 10688 10690 10693 10695 10696 10696 10696 10697 10699 10699 10700 10700 10702 10704 10705 10707 10709 10710 10712 10714 10715
10582 10584 10586 10587 10588 10588 10589 10591 10591 10593 10594 10594 10596 10597 10599 10601 10603 10605 10605 10607 10609 10610 10611 10613 10614 10615 10617 10618 10619 10621 10623 10625 10627 10628 10630 10631 10633 10635 10637 10640 10642 10644 10646 10648 10650 10653 10655 10658 10660 10662 10664 10666 10668 10669 10670 10671 10672 10674 10676 10677 10678 10679 10680 10682 10683 10685 10687 10690 10692 10692 10693 10694 10695 10696 10696 10696 10697 10699 10700 10702 10704 10705 10707 10708 10709
10577 10579 10580 10581 10582 10583 10584 10585 10586 10588 10589 10590 10590 10592 10593 10595 10598 10600 10601 10602 10604 10605 10607 10609 10610 10611 10613 10614 10615 10617 10618 10620 10622 10624 10625 10626 10628 10629 10631 10634 10636 10639 10640 10642 10644 10647 10649 10651 10653 10656 10658 10660 10661 10663 10665 10666 10668 10669 10671 10672 10673 10674 10675 10677 10678 10680 10683 10684 10686 10687 10689 10691 10692 10692 10693 10693 10694 10694 10695 10696 10698 10700 10701 10702 10704
10572 10574 10575 10575 10576 10578 10579 10580 10581 10583 10584 10585 10585 10586 10588 10590 10592 10595 10596 10597 10599 10600 10602 10604 10606 10607 10609 10610 10611 10613 10614 10615 10617 10619 10620 10622 10623 10624 10626 10628 10631 10633 10635 10637 10639 10641 10642 10644 10647 10649 10651 10653 10654 10656 10658 10660 10662 10663 10665 10667 10668 10669 10670 10671 10673 10675 10678 10680 10680 10682 10684 10686 10688 10689 10689 10690 10692 10691 10691 10691 10692 10694 10696 10697 10698